GW3831 Weather Reports


time (UTC)temp
C
wind
direction
speed
KPH
gust
KPH
rain 1hr
cm
rain 24hr
cm
rain mn
cm
humidity
%
barometer
mb
20260508025605 10 89 1.6 4.8 0.00 0.00 0.00 84 1016.6
20260508025105 10 157 0.0 1.6 0.00 0.00 0.00 86 1016.6
20260508024604 10 129 0.0 0.0 0.00 0.00 0.00 86 1016.9
20260508024105 10 103 0.0 3.2 0.00 0.00 0.00 86 1016.9
20260508023605 10 84 0.0 3.2 0.00 0.00 0.00 87 1016.7
20260508023104 10 117 0.0 0.0 0.00 0.00 0.00 87 1016.9
20260508022604 10 117 0.0 0.0 0.00 0.00 0.00 86 1016.7
20260508022104 10 117 0.0 0.0 0.00 0.00 0.00 86 1016.8
20260508021604 10 117 0.0 1.6 0.00 0.00 0.00 86 1016.6
20260508021104 10 105 1.6 1.6 0.00 0.00 0.00 86 1016.9
20260508020105 10 89 0.0 1.6 0.00 0.00 0.00 87 1016.9
20260508015605 10 129 0.0 1.6 0.00 0.00 0.00 87 1016.8
20260508015104 10 77 0.0 1.6 0.00 0.00 0.00 87 1016.7
20260508014604 10 230 0.0 0.0 0.00 0.00 0.00 87 1016.9
20260508014104 10 230 0.0 0.0 0.00 0.00 0.00 87 1016.9
20260508013604 10 154 0.0 0.0 0.00 0.00 0.00 87 1016.9
20260508013104 10 154 0.0 0.0 0.00 0.00 0.00 88 1016.9
20260508012605 10 333 0.0 0.0 0.00 0.00 0.00 88 1016.8
20260508011604 10 333 0.0 0.0 0.00 0.00 0.00 89 1016.9
20260508011105 10 332 0.0 0.0 0.00 0.00 0.00 89 1016.9
20260508010604 10 315 0.0 0.0 0.00 0.00 0.00 89 1016.6
20260508010105 10 315 0.0 0.0 0.00 0.00 0.00 89 1016.9
20260508005605 10 315 0.0 0.0 0.00 0.00 0.00 89 1016.9
20260508005104 10 312 0.0 0.0 0.00 0.00 0.00 89 1016.9
20260508004604 10 310 0.0 0.0 0.00 0.00 0.00 88 1016.8
20260508003606 10 315 0.0 0.0 0.00 0.00 0.00 88 1017.0
20260508003104 11 315 0.0 0.0 0.00 0.00 0.00 88 1017.2
20260508002606 11 315 0.0 0.0 0.00 0.00 0.00 88 1016.8
20260508002105 11 315 0.0 0.0 0.00 0.00 0.00 88 1016.9
20260508001604 11 309 0.0 1.6 0.00 0.00 0.00 87 1016.9
20260508000604 11 319 0.0 0.0 0.00 0.00 0.00 82 1017.2
20260508000105 11 129 0.0 1.6 0.00 0.00 0.00 82 1017.2
20260507235604 11 108 0.0 1.6 0.00 0.00 0.00 81 1016.9
20260507235104 11 108 1.6 3.2 0.00 0.00 0.00 82 1017.3
20260507234604 11 118 1.6 3.2 0.00 0.00 0.00 82 1017.3
20260507234104 11 137 0.0 1.6 0.00 0.00 0.00 82 1017.0
20260507233604 11 108 1.6 1.6 0.00 0.00 0.00 82 1017.3
20260507233106 11 116 0.0 0.0 0.00 0.00 0.00 83 1017.3
20260507232604 11 154 0.0 0.0 0.00 0.00 0.00 84 1017.3
20260507232104 11 154 0.0 0.0 0.00 0.00 0.00 85 1017.3
20260507231604 11 154 0.0 0.0 0.00 0.00 0.00 85 1017.3
20260507231105 11 324 0.0 0.0 0.00 0.00 0.00 86 1017.3
20260507230105 11 322 0.0 0.0 0.00 0.00 0.00 87 1017.3
20260507224605 11 322 0.0 0.0 0.00 0.00 0.00 87 1017.3
20260507224104 11 322 0.0 0.0 0.00 0.00 0.00 88 1017.3
20260507223604 11 322 0.0 0.0 0.00 0.00 0.00 88 1017.3
20260507223104 11 301 0.0 1.6 0.00 0.00 0.00 88 1017.3
20260507222605 11 315 0.0 1.6 0.00 0.00 0.00 87 1017.3
20260507222105 11 313 0.0 1.6 0.00 0.00 0.00 86 1017.3
20260507221605 11 315 0.0 0.0 0.00 0.00 0.00 85 1017.4
20260507221105 11 315 0.0 0.0 0.00 0.00 0.00 84 1017.3
20260507220604 11 315 0.0 0.0 0.00 0.00 0.00 84 1017.4
20260507220104 11 315 0.0 0.0 0.00 0.00 0.00 84 1017.3
20260507215104 11 297 0.0 0.0 0.00 0.00 0.00 84 1017.3
20260507214604 11 297 0.0 0.0 0.00 0.00 0.00 84 1017.3
20260507214104 12 297 0.0 0.0 0.00 0.00 0.00 83 1017.3
20260507213604 12 297 0.0 0.0 0.00 0.00 0.00 81 1017.3
20260507213104 12 135 0.0 0.0 0.00 0.00 0.00 80 1017.3
20260507211604 12 135 0.0 0.0 0.00 0.00 0.00 79 1017.3
20260507205604 12 315 0.0 0.0 0.00 0.00 0.00 80 1017.3
20260507205104 12 315 0.0 0.0 0.00 0.00 0.00 79 1017.3
20260507204604 12 315 0.0 0.0 0.00 0.00 0.00 77 1017.3
20260507204104 12 310 0.0 0.0 0.00 0.00 0.00 76 1017.2
20260507203604 12 309 0.0 0.0 0.00 0.00 0.00 76 1017.0
20260507203104 12 309 0.0 0.0 0.00 0.00 0.00 76 1017.0
20260507202604 12 309 0.0 0.0 0.00 0.00 0.00 76 1017.2
20260507201605 12 315 0.0 0.0 0.00 0.00 0.00 77 1017.2
20260507201105 12 315 0.0 0.0 0.00 0.00 0.00 77 1016.9
20260507200604 12 315 0.0 0.0 0.00 0.00 0.00 76 1016.7
20260507200105 12 304 0.0 0.0 0.00 0.00 0.00 74 1016.9
20260507195606 12 336 0.0 0.0 0.00 0.00 0.00 74 1016.6
20260507195104 12 336 0.0 0.0 0.00 0.00 0.00 74 1016.7
20260507194606 12 336 0.0 0.0 0.00 0.00 0.00 74 1016.6
20260507194104 12 336 0.0 0.0 0.00 0.00 0.00 72 1016.6
20260507193605 13 336 0.0 0.0 0.00 0.00 0.00 72 1016.3
20260507193105 13 336 0.0 0.0 0.00 0.00 0.00 70 1016.6
20260507192604 13 309 0.0 0.0 0.00 0.00 0.00 70 1016.6
20260507192104 13 309 0.0 1.6 0.00 0.00 0.00 68 1016.6
20260507191604 13 322 1.6 1.6 0.00 0.00 0.00 67 1016.6
20260507191106 13 321 0.0 0.0 0.00 0.00 0.00 67 1016.6
20260507190604 13 326 0.0 0.0 0.00 0.00 0.00 67 1016.6
20260507190104 13 297 0.0 0.0 0.00 0.00 0.00 66 1016.5
20260507185105 13 297 0.0 0.0 0.00 0.00 0.00 65 1016.5
20260507184604 13 297 0.0 0.0 0.00 0.00 0.00 65 1016.3
20260507184105 13 297 0.0 0.0 0.00 0.00 0.00 67 1016.4
20260507183104 13 300 0.0 0.0 0.00 0.00 0.00 65 1016.3
20260507182604 13 292 0.0 0.0 0.00 0.00 0.00 66 1016.4
20260507181604 14 298 0.0 1.6 0.00 0.00 0.00 62 1016.5
20260507181104 14 308 0.0 0.0 0.00 0.00 0.00 61 1016.3
20260507180607 14 309 0.0 1.6 0.00 0.00 0.00 62 1016.5
20260507180104 14 317 0.0 0.0 0.00 0.00 0.00 63 1016.3
20260507175104 14 309 0.0 1.6 0.00 0.00 0.00 61 1016.5
20260507173105 14 288 0.0 1.6 0.00 0.00 0.00 60 1016.4
20260507172606 14 299 0.0 1.6 0.00 0.00 0.00 60 1016.3
20260507172106 14 283 0.0 0.0 0.00 0.00 0.00 58 1016.2
20260507171104 15 300 0.0 1.6 0.00 0.00 0.00 59 1016.5
20260507170605 15 228 0.0 1.6 0.00 0.00 0.00 59 1016.3
20260507170104 14 314 1.6 3.2 0.00 0.00 0.00 59 1016.3
20260507165604 15 310 0.0 1.6 0.00 0.00 0.00 57 1016.4
20260507165105 15 333 0.0 1.6 0.00 0.00 0.00 57 1016.3
20260507164605 15 220 0.0 3.2 0.00 0.00 0.00 54 1016.3
20260507164105 15 139 1.6 3.2 0.00 0.00 0.00 53 1016.3
20260507163604 15 144 1.6 3.2 0.00 0.00 0.00 53 1016.3
20260507163104 15 128 3.2 4.8 0.00 0.00 0.00 53 1016.3
20260507162604 15 90 1.6 1.6 0.00 0.00 0.00 54 1016.3
20260507162104 15 112 0.0 3.2 0.00 0.00 0.00 55 1016.5
20260507161604 15 87 1.6 3.2 0.00 0.00 0.00 53 1016.3
20260507161104 15 160 1.6 3.2 0.00 0.00 0.00 52 1016.3
20260507160105 15 85 1.6 4.8 0.00 0.00 0.00 53 1016.3
20260507155604 15 139 1.6 4.8 0.00 0.00 0.00 53 1016.3
20260507155104 15 120 1.6 4.8 0.00 0.00 0.00 53 1016.3
20260507154605 15 80 1.6 4.8 0.00 0.00 0.00 52 1016.3
20260507154105 15 147 1.6 8.0 0.00 0.00 0.00 53 1016.3
20260507153604 15 131 3.2 8.0 0.00 0.00 0.00 52 1016.3
20260507153104 15 87 1.6 3.2 0.00 0.00 0.00 52 1016.3
20260507151604 15 203 1.6 4.8 0.00 0.00 0.00 53 1016.5
20260507151104 15 84 3.2 4.8 0.00 0.00 0.00 53 1016.3
20260507150604 15 142 1.6 4.8 0.00 0.00 0.00 52 1016.2
20260507150104 15 356 0.0 3.2 0.00 0.00 0.00 54 1016.0
20260507145604 15 276 0.0 3.2 0.00 0.00 0.00 54 1016.0
20260507145104 15 96 1.6 3.2 0.00 0.00 0.00 54 1016.3
20260507144604 15 87 0.0 3.2 0.00 0.00 0.00 55 1016.3
20260507144104 15 287 1.6 3.2 0.00 0.00 0.00 54 1016.2
20260507143604 15 322 0.0 3.2 0.00 0.00 0.00 55 1016.3
20260507142104 15 310 3.2 4.8 0.00 0.00 0.00 56 1016.3
20260507141605 15 333 1.6 3.2 0.00 0.00 0.00 55 1016.4
20260507141105 15 316 3.2 3.2 0.00 0.00 0.00 57 1016.3
20260507140604 15 304 1.6 4.8 0.00 0.00 0.00 57 1016.3
20260507140105 15 303 1.6 3.2 0.00 0.00 0.00 56 1016.4
20260507135104 15 273 1.6 4.8 0.00 0.00 0.00 55 1016.6
20260507134605 15 190 1.6 4.8 0.00 0.00 0.00 55 1016.5
20260507134104 15 113 1.6 4.8 0.00 0.00 0.00 54 1016.4
20260507133605 15 264 1.6 3.2 0.00 0.00 0.00 56 1016.5
20260507132605 15 313 3.2 3.2 0.00 0.00 0.00 56 1016.6
20260507131604 15 271 1.6 3.2 0.00 0.00 0.00 56 1016.6
20260507131104 15 338 1.6 3.2 0.00 0.00 0.00 57 1016.3
20260507130604 15 313 0.0 3.2 0.00 0.00 0.00 56 1016.5
20260507130104 15 340 1.6 3.2 0.00 0.00 0.00 56 1016.6
20260507125605 15 303 1.6 3.2 0.00 0.00 0.00 58 1016.3
20260507125105 15 306 1.6 3.2 0.00 0.00 0.00 58 1016.4
20260507124604 15 313 1.6 4.8 0.00 0.00 0.00 57 1016.5
20260507124104 15 305 1.6 4.8 0.00 0.00 0.00 57 1016.6
20260507123604 15 305 1.6 3.2 0.00 0.00 0.00 55 1016.6
20260507123104 15 281 1.6 3.2 0.00 0.00 0.00 55 1016.3
20260507122604 15 308 0.0 3.2 0.00 0.00 0.00 55 1016.3
20260507121606 15 333 0.0 3.2 0.00 0.00 0.00 56 1016.4
20260507121105 15 307 3.2 4.8 0.00 0.00 0.00 53 1016.3
20260507120604 15 305 3.2 4.8 0.00 0.00 0.00 54 1016.3
20260507115604 15 326 3.2 8.0 0.00 0.00 0.00 57 1016.3
20260507115104 15 319 1.6 4.8 0.00 0.00 0.00 56 1016.3
20260507114604 15 298 1.6 3.2 0.00 0.00 0.00 56 1016.2
20260507114104 15 278 1.6 4.8 0.00 0.00 0.00 57 1016.3
20260507113604 15 286 1.6 4.8 0.00 0.00 0.00 55 1016.3
20260507113104 15 267 0.0 8.0 0.00 0.00 0.00 57 1016.2
20260507111604 15 314 3.2 8.0 0.00 0.00 0.00 57 1016.3
20260507111104 15 283 0.0 4.8 0.00 0.00 0.00 59 1016.3
20260507110604 15 8 1.6 4.8 0.00 0.00 0.00 58 1016.3
20260507105604 15 280 3.2 9.7 0.00 0.00 0.00 57 1016.3
20260507104607 16 295 3.2 9.7 0.00 0.00 0.00 52 1016.3
20260507104104 17 126 1.6 4.8 0.00 0.00 0.00 50 1016.3
20260507103104 17 278 0.0 4.8 0.00 0.00 0.00 53 1016.3
20260507102604 16 330 3.2 4.8 0.00 0.00 0.00 52 1016.3
20260507102105 16 319 3.2 4.8 0.00 0.00 0.00 54 1016.3
20260507101604 16 297 3.2 11.3 0.00 0.00 0.00 54 1016.3
20260507101104 16 311 4.8 8.0 0.00 0.00 0.00 52 1016.2
20260507100604 16 312 1.6 11.3 0.00 0.00 0.00 57 1016.3
20260507100104 15 327 4.8 14.5 0.00 0.00 0.00 57 1016.3
20260507095604 15 289 1.6 3.2 0.00 0.00 0.00 60 1016.3
20260507095105 15 291 1.6 4.8 0.00 0.00 0.00 58 1016.3
20260507094605 15 311 4.8 9.7 0.00 0.00 0.00 58 1016.0
20260507094105 16 333 3.2 9.7 0.00 0.00 0.00 53 1016.3
20260507093104 16 60 3.2 9.7 0.00 0.00 0.00 55 1016.0
20260507092604 16 296 3.2 8.0 0.00 0.00 0.00 60 1016.2
20260507092106 17 145 3.2 8.0 0.00 0.00 0.00 53 1016.0
20260507091604 16 208 1.6 12.9 0.00 0.00 0.00 58 1016.2
20260507091104 16 96 3.2 12.9 0.00 0.00 0.00 59 1016.2
20260507090604 15 271 1.6 8.0 0.00 0.00 0.00 61 1015.9
20260507085604 15 337 3.2 8.0 0.00 0.00 0.00 61 1016.3
20260507084604 14 303 1.6 8.0 0.00 0.00 0.00 62 1015.9
20260507084104 15 278 1.6 4.8 0.00 0.00 0.00 62 1015.9
20260507083605 13 290 3.2 4.8 0.00 0.00 0.00 64 1015.9
20260507082604 13 5 3.2 9.7 0.00 0.00 0.00 63 1015.9
20260507082104 13 328 3.2 4.8 0.00 0.00 0.00 66 1016.2
20260507081104 14 313 3.2 4.8 0.00 0.00 0.00 63 1016.0
20260507075605 13 325 1.6 8.0 0.00 0.00 0.00 67 1015.9
20260507075104 13 353 3.2 8.0 0.00 0.00 0.00 64 1015.9
20260507074604 14 283 1.6 3.2 0.00 0.00 0.00 64 1015.9
20260507074104 14 320 0.0 3.2 0.00 0.00 0.00 63 1015.9
20260507073104 12 308 1.6 8.0 0.00 0.00 0.00 68 1015.9
20260507072604 12 357 3.2 8.0 0.00 0.00 0.00 69 1015.6
20260507071604 12 319 1.6 9.7 0.00 0.00 0.00 70 1015.9
20260507070604 12 295 1.6 3.2 0.00 0.00 0.00 70 1015.9
20260507070106 11 304 1.6 3.2 0.00 0.00 0.00 72 1015.9
20260507065604 11 302 1.6 4.8 0.00 0.00 0.00 73 1015.8
20260507064105 11 299 0.0 3.2 0.00 0.00 0.00 71 1015.6
20260507063105 11 317 0.0 3.2 0.00 0.00 0.00 73 1015.6
20260507062604 11 239 0.0 3.2 0.00 0.00 0.00 74 1015.6
20260507061104 10 161 0.0 3.2 0.00 0.00 0.00 81 1015.5
20260507060604 9 215 1.6 3.2 0.00 0.00 0.00 83 1015.6
20260507060104 9 303 1.6 3.2 0.00 0.00 0.00 83 1015.3
20260507055104 9 311 0.0 3.2 0.00 0.00 0.00 84 1015.5
20260507054605 8 235 1.6 3.2 0.00 0.00 0.00 84 1015.2
20260507054104 8 274 1.6 3.2 0.00 0.00 0.00 84 1015.2
20260507053104 8 314 1.6 3.2 0.00 0.00 0.00 85 1015.3
20260507052604 8 92 0.0 3.2 0.00 0.00 0.00 86 1015.2
20260507051606 8 195 1.6 4.8 0.00 0.00 0.00 87 1015.2
20260507051104 8 229 1.6 3.2 0.00 0.00 0.00 87 1015.0
20260507050604 8 303 0.0 4.8 0.00 0.00 0.00 87 1014.9
20260507045604 8 143 0.0 1.6 0.00 0.00 0.00 87 1014.7
20260507044604 8 296 0.0 3.2 0.00 0.00 0.00 88 1014.6
20260507043604 8 285 1.6 3.2 0.00 0.00 0.00 88 1014.3
20260507043104 8 317 1.6 3.2 0.00 0.00 0.00 88 1014.6
20260507042604 8 217 0.0 3.2 0.00 0.00 0.00 88 1014.3
20260507042104 8 298 1.6 3.2 0.00 0.00 0.00 88 1014.2
20260507041606 8 8 0.0 3.2 0.00 0.00 0.00 88 1014.2
20260507040604 8 286 1.6 1.6 0.00 0.00 0.00 88 1014.2
20260507040104 8 204 0.0 3.2 0.00 0.00 0.00 88 1014.2
20260507035604 8 297 0.0 1.6 0.00 0.00 0.00 88 1014.2
20260507035104 8 310 0.0 1.6 0.00 0.00 0.00 88 1014.3
20260507034104 8 312 0.0 1.6 0.00 0.00 0.00 88 1014.2
20260507033104 8 301 0.0 3.2 0.00 0.00 0.00 88 1014.1
20260507032605 8 350 0.0 0.0 0.00 0.00 0.00 87 1014.2
20260507032104 8 352 0.0 1.6 0.00 0.00 0.00 87 1014.1
20260507031605 8 345 0.0 3.2 0.00 0.00 0.00 87 1014.0
20260507031104 8 321 1.6 3.2 0.00 0.00 0.00 87 1014.0
20260507030606 8 353 0.0 3.2 0.00 0.00 0.00 87 1014.2